Fort Hood, TX

8:37 AM CST on December 14, 2019 (GMT -0600)
Killeen-Fort Hood Regional

Weather History for KGRK - September, 2019

Change the Weather History Date:

Monday, September 16, 2019

  Actual Average Record
Temperature  
Mean Temperature 84 °F -  
Max Temperature 94 °F 87 °F 100 °F (1997)
Min Temperature 74 °F 67 °F 55 °F (2008)
Cooling Degree Days 18    
Growing Degree Days 34 (Base 50)    
Moisture  
Dew Point 64 °F    
Average Humidity 52    
Maximum Humidity 70    
Minimum Humidity 33    
Precipitation  
Precipitation 0.00 in - - ()
Sea Level Pressure  
Sea Level Pressure 29.97 in    
Wind  
Wind Speed 5 mph (NE)    
Max Wind Speed 14 mph    
Max Gust Speed -    
Visibility 10 miles    
Events      
Averages and records for this station are not official NWS values.
T = Trace of Precipitation, MM = Missing Value Source: NWS Daily Summary

Daily Weather History Graph

Daily Weather History Graph

Search for Another Location

Airport or City:

Astronomy

Sep. 16, 2019 Rise Set
Actual Time 7:16 AM CDT 7:35 PM CDT
Civil Twilight 6:51 AM CDT 8:00 PM CDT
Nautical Twilight 6:23 AM CDT 8:28 PM CDT
Astronomical Twilight 5:54 AM CDT 8:57 PM CDT
Moon 9:19 PM CDT (9/16) 9:18 AM CDT (9/16)
Length of Visible Light 13h 08m
Length of Day
12h 19m
Waning Gibbous, 94% of the Moon is Illuminated
Sep 16
Waning Gibbous
Sep 21
Last Quarter
Sep 28
New
Oct 5
First Quarter
Oct 13
Full

Hourly Weather History & Observations

Time (CDT) Temp. Heat Index Dew Point Humidity Pressure Visibility Wind Dir Wind Speed Gust Speed Precip Events Conditions
12:58 AM 79.2 °F - 64.0 °F 60% 30.01 in 10.0 mi Calm Calm - N/A   Clear
1:58 AM 76.8 °F - 64.6 °F 66% 30.01 in 10.0 mi Calm Calm - N/A   Clear
2:58 AM 75.6 °F - 63.9 °F 67% 30.01 in 10.0 mi Calm Calm - N/A   Clear
3:58 AM 77.4 °F - 62.8 °F 61% 29.99 in 10.0 mi SW 3.5 mph - N/A   Clear
4:58 AM 77.4 °F - 63.7 °F 63% 29.99 in 10.0 mi WSW 5.8 mph - N/A   Clear
5:58 AM 77.5 °F - 63.9 °F 63% 30.00 in 10.0 mi WNW 4.6 mph - N/A   Clear
6:58 AM 74.8 °F - 63.9 °F 69% 30.01 in 10.0 mi North 5.8 mph - N/A   Clear
7:58 AM 77.2 °F - 63.7 °F 63% 30.01 in 10.0 mi NNW 3.5 mph - N/A   Clear
8:58 AM 81.5 °F 83.3 °F 65.1 °F 57% 30.02 in 10.0 mi NW 9.2 mph - N/A   Clear
9:58 AM 83.5 °F 85.3 °F 65.5 °F 54% 30.03 in 10.0 mi NNW 10.4 mph - N/A   Partly Cloudy
10:58 AM 87.3 °F 88.9 °F 64.9 °F 47% 30.03 in 10.0 mi North 6.9 mph - N/A   Clear
11:58 AM 88.9 °F 91.0 °F 65.8 °F 46% 30.01 in 10.0 mi NE 6.9 mph - N/A   Clear
12:58 PM 90.1 °F 91.6 °F 64.0 °F 42% 29.99 in 10.0 mi East 10.4 mph - N/A   Partly Cloudy
1:58 PM 90.9 °F 92.3 °F 63.9 °F 41% 29.97 in 10.0 mi NNE 4.6 mph - N/A   Scattered Clouds
2:58 PM 92.5 °F 93.7 °F 63.3 °F 38% 29.94 in 10.0 mi ENE 9.2 mph - N/A   Partly Cloudy
3:58 PM 93.7 °F 94.1 °F 61.7 °F 34% 29.91 in 10.0 mi ENE 13.8 mph - N/A   Clear
4:58 PM 91.4 °F 91.4 °F 60.6 °F 36% 29.90 in 10.0 mi East 10.4 mph - N/A   Mostly Cloudy
5:58 PM 92.5 °F 91.9 °F 59.7 °F 33% 29.89 in 10.0 mi East 10.4 mph - N/A   Clear
6:58 PM 91.4 °F 90.7 °F 59.0 °F 34% 29.90 in 10.0 mi East 10.4 mph - N/A   Clear
7:58 PM 87.3 °F 87.2 °F 61.0 °F 41% 29.90 in 10.0 mi East 6.9 mph - N/A   Clear
8:58 PM 85.6 °F 86.1 °F 61.9 °F 45% 29.91 in 10.0 mi East 6.9 mph - N/A   Clear
9:58 PM 84.2 °F 84.8 °F 61.7 °F 47% 29.93 in 10.0 mi East 9.2 mph - N/A   Clear
10:58 PM 81.0 °F 83.8 °F 68.0 °F 65% 29.94 in 10.0 mi ESE 10.4 mph - N/A   Clear
11:58 PM 79.2 °F - 68.5 °F 70% 29.95 in 10.0 mi ESE 9.2 mph - N/A   Clear